TimeEDT,TemperatureF,Dew PointF,Humidity,Sea Level PressureIn,VisibilityMPH,Wind Direction,Wind SpeedMPH,Gust SpeedMPH,PrecipitationIn,Events,Conditions,WindDirDegrees,DateUTC
12:53 AM,48.0,39.0,71,29.99,10.0,Calm,Calm,-,N/A,,Clear,0,2012-11-03 04:53:00
1:53 AM,46.0,39.0,76,29.99,10.0,Calm,Calm,-,N/A,,Clear,0,2012-11-03 05:53:00
2:53 AM,44.1,39.0,82,29.99,10.0,Calm,Calm,-,N/A,,Clear,0,2012-11-03 06:53:00
3:53 AM,39.9,35.1,83,30.00,10.0,Calm,Calm,-,N/A,,Clear,0,2012-11-03 07:53:00
4:53 AM,39.0,36.0,89,30.01,10.0,Calm,Calm,-,N/A,,Clear,0,2012-11-03 08:53:00
5:53 AM,39.9,36.0,86,30.03,10.0,Calm,Calm,-,N/A,,Clear,0,2012-11-03 09:53:00
6:53 AM,41.0,36.0,82,30.05,10.0,Calm,Calm,-,N/A,,Clear,0,2012-11-03 10:53:00
7:53 AM,39.0,35.1,86,30.08,9.0,Calm,Calm,-,N/A,,Clear,0,2012-11-03 11:53:00
8:53 AM,46.9,39.0,74,30.10,10.0,Calm,Calm,-,N/A,,Clear,0,2012-11-03 12:53:00
9:53 AM,54.0,34.0,47,30.12,10.0,East,3.5,-,N/A,,Clear,80,2012-11-03 13:53:00
10:53 AM,59.0,30.9,35,30.12,10.0,ENE,5.8,-,N/A,,Clear,70,2012-11-03 14:53:00
11:53 AM,60.1,30.9,33,30.12,10.0,Variable,3.5,-,N/A,,Clear,0,2012-11-03 15:53:00
12:53 PM,64.0,32.0,30,30.09,10.0,Variable,3.5,-,N/A,,Clear,0,2012-11-03 16:53:00
1:53 PM,66.0,30.0,26,30.06,10.0,Calm,Calm,-,N/A,,Clear,0,2012-11-03 17:53:00
2:53 PM,66.9,32.0,27,30.04,10.0,Variable,4.6,-,N/A,,Clear,0,2012-11-03 18:53:00
3:53 PM,68.0,30.9,25,30.03,10.0,WNW,6.9,-,N/A,,Clear,290,2012-11-03 19:53:00
4:53 PM,69.1,32.0,25,30.03,10.0,WSW,5.8,-,N/A,,Clear,250,2012-11-03 20:53:00
5:53 PM,66.9,34.0,30,30.03,10.0,Calm,Calm,-,N/A,,Clear,0,2012-11-03 21:53:00
6:53 PM,57.9,42.1,56,30.03,10.0,South,4.6,-,N/A,,Clear,170,2012-11-03 22:53:00
7:53 PM,54.0,41.0,62,30.04,10.0,South,3.5,-,N/A,,Clear,170,2012-11-03 23:53:00
8:53 PM,53.1,41.0,64,30.03,10.0,Calm,Calm,-,N/A,,Clear,0,2012-11-04 00:53:00
9:53 PM,52.0,41.0,66,30.03,10.0,SE,3.5,-,N/A,,Clear,140,2012-11-04 01:53:00
10:53 PM,51.1,41.0,68,30.04,10.0,SSE,3.5,-,N/A,,Clear,160,2012-11-04 02:53:00
11:53 PM,48.9,42.1,77,30.04,10.0,SE,3.5,-,N/A,,Clear,130,2012-11-04 03:53:00